This is the latest recevied weather packets stored in our database for station/object IK6ZNK-3. If no packets are shown the sender has not sent any weather packets the latest 10 day(s).
| Time | Temp. | Humidity | Pressure | Rain* | Wind** | Luminosity | Snow |
|---|---|---|---|---|---|---|---|
| 1778020207 | 16.67° C | 70% | 1006.1 hPa | 0 mm | - | - | - |
| 1778019606 | 16.11° C | 70% | 1006.1 hPa | 0 mm | - | - | - |
| 1778019007 | 15.56° C | 76% | 1006.2 hPa | 0 mm | - | - | - |
| 1778018410 | 15.56° C | 76% | 1006.4 hPa | 0 mm | - | - | - |
| 1778017807 | 15.56° C | 76% | 1006.4 hPa | 0 mm | - | - | - |
| 1778017207 | 16.11° C | 77% | 1006.3 hPa | 0 mm | - | - | - |
| 1778016607 | 16.11° C | 72% | 1006.6 hPa | 0 mm | - | - | - |
| 1778016007 | 16.11° C | 72% | 1006.4 hPa | 0 mm | - | - | - |
| 1778015406 | 15.56° C | 76% | 1006.5 hPa | 0 mm | - | - | - |
| 1778014807 | 15.56° C | 81% | 1006.4 hPa | 0 mm | - | - | - |
| 1778014207 | 15.56° C | 82% | 1006.6 hPa | 0 mm | - | - | - |
| 1778013607 | 15.56° C | 82% | 1006.7 hPa | 0 mm | - | - | - |
| 1778013007 | 15.56° C | 79% | 1006.9 hPa | 0 mm | - | - | - |
| 1778012407 | 15° C | 85% | 1006.8 hPa | 0 mm | - | - | - |
| 1778011806 | 15° C | 85% | 1006.8 hPa | 0 mm | - | - | - |
| 1778011207 | 15.56° C | 86% | 1007.2 hPa | 0 mm | - | - | - |
| 1778010606 | 15.56° C | 86% | 1007.1 hPa | 0 mm | - | - | - |
| 1778010007 | 15.56° C | 86% | 1007 hPa | 0 mm | - | - | - |
| 1778009407 | 15.56° C | 86% | 1006.8 hPa | 0 mm | - | - | - |
| 1778008807 | 15.56° C | 86% | 1006.7 hPa | 0 mm | - | - | - |
| 1778008207 | 15.56° C | 87% | 1006.6 hPa | 0 mm | - | - | - |
| 1778007607 | 15.56° C | 87% | 1006.2 hPa | 0 mm | - | - | - |
| 1778007007 | 15.56° C | 86% | 1006.3 hPa | 0 mm | - | - | - |
| 1778006407 | 15.56° C | 85% | 1006.5 hPa | 0 mm | - | - | - |
| 1778005807 | 16.11° C | 83% | 1006.4 hPa | 0 mm | - | - | - |
* Rain latest hour (hover to see other rain measurements)
** Current wind speed in m/s (hover to see current wind gust speed)